Total_Precipitation_Accumulation
0.07 0.08 0.08 0.10 0.13 0.14 0.15 0.16 0.17 0.17 0.19 0.21 0.22 0.23 0.25 0.27 0.32 0.39 0.44 0.45 0.48 0.49 0.49 0.51 0.50 0.49 0.55 0.59 0.64 0.70 0.79 0.90 0.87 0.51 0.34 0.29 0.31 0.32 0.36 0.38 0.39 0.41 0.43
0.05 0.06 0.08 0.10 0.12 0.14 0.16 0.16 0.16 0.17 0.18 0.19 0.21 0.23 0.23 0.24 0.27 0.31 0.33 0.35 0.39 0.40 0.40 0.43 0.43 0.44 0.50 0.56 0.63 0.69 0.73 0.77 0.86 0.69 0.48 0.40 0.37 0.38 0.44 0.49 0.49 0.48 0.46
0.03 0.05 0.06 0.07 0.10 0.11 0.13 0.13 0.15 0.15 0.17 0.18 0.21 0.23 0.23 0.24 0.23 0.24 0.28 0.32 0.34 0.35 0.35 0.39 0.41 0.46 0.51 0.54 0.59 0.67 0.71 0.76 0.87 0.91 0.73 0.59 0.55 0.55 0.61 0.64 0.61 0.55 0.48
0.03 0.04 0.05 0.05 0.06 0.08 0.09 0.10 0.12 0.13 0.14 0.16 0.19 0.20 0.21 0.22 0.23 0.24 0.28 0.33 0.35 0.37 0.38 0.42 0.45 0.49 0.53 0.57 0.65 0.69 0.75 0.89 1.00 1.08 0.98 0.84 0.78 0.73 0.75 0.73 0.66 0.56 0.50
0.05 0.06 0.06 0.07 0.06 0.05 0.06 0.07 0.08 0.10 0.11 0.13 0.14 0.15 0.18 0.21 0.24 0.26 0.29 0.33 0.37 0.39 0.40 0.43 0.47 0.59 0.65 0.69 0.72 0.73 0.84 1.03 1.14 1.17 1.06 0.91 0.79 0.73 0.69 0.65 0.69 0.68 0.65
0.05 0.05 0.05 0.05 0.06 0.06 0.06 0.07 0.07 0.08 0.09 0.10 0.12 0.14 0.16 0.20 0.31 0.35 0.34 0.36 0.40 0.43 0.43 0.42 0.45 0.58 0.64 0.74 0.80 0.86 0.92 1.03 1.10 1.16 1.09 0.95 0.77 0.71 0.76 0.86 0.94 1.00 0.87
0.04 0.04 0.04 0.04 0.04 0.05 0.06 0.07 0.08 0.09 0.10 0.11 0.12 0.13 0.15 0.20 0.32 0.33 0.38 0.39 0.39 0.42 0.43 0.45 0.47 0.50 0.65 0.62 0.77 0.93 0.95 1.06 1.13 1.13 1.14 0.98 0.91 0.90 1.04 1.16 1.11 1.07 0.88
0.03 0.04 0.04 0.05 0.05 0.05 0.06 0.07 0.08 0.09 0.10 0.12 0.14 0.15 0.18 0.23 0.33 0.33 0.38 0.39 0.39 0.41 0.42 0.44 0.50 0.54 0.61 0.70 0.74 0.82 0.83 0.89 1.02 1.07 1.05 0.98 0.98 1.02 1.13 1.26 1.32 1.35 1.14
0.04 0.04 0.05 0.05 0.06 0.06 0.06 0.07 0.08 0.10 0.12 0.13 0.15 0.17 0.20 0.23 0.35 0.36 0.40 0.37 0.43 0.45 0.45 0.49 0.56 0.57 0.75 0.91 0.87 0.87 0.88 0.87 0.98 1.05 1.06 1.06 1.12 1.17 1.21 1.38 1.49 1.51 1.27
0.03 0.04 0.04 0.05 0.05 0.06 0.06 0.07 0.09 0.11 0.13 0.14 0.16 0.18 0.21 0.25 0.39 0.44 0.44 0.41 0.46 0.48 0.49 0.54 0.69 0.71 0.83 0.98 0.96 0.98 1.00 0.84 0.85 0.95 1.01 1.02 0.99 1.02 1.16 1.16 1.24 1.51 1.41
0.03 0.04 0.04 0.05 0.05 0.06 0.07 0.08 0.10 0.12 0.15 0.18 0.20 0.22 0.25 0.33 0.45 0.51 0.51 0.49 0.50 0.54 0.56 0.56 0.61 0.81 0.89 0.99 1.04 1.01 0.98 1.01 1.11 1.11 1.07 1.03 1.01 1.01 1.05 1.06 1.11 1.28 1.40
0.05 0.05 0.05 0.06 0.07 0.08 0.10 0.12 0.15 0.18 0.22 0.26 0.29 0.33 0.35 0.40 0.48 0.54 0.59 0.59 0.59 0.66 0.64 0.58 0.63 0.83 0.93 1.00 1.07 1.02 1.06 1.23 1.27 1.23 1.15 1.05 0.98 0.96 0.95 0.99 1.02 1.05 1.06
0.08 0.09 0.10 0.11 0.12 0.13 0.16 0.20 0.24 0.28 0.32 0.35 0.38 0.41 0.43 0.45 0.50 0.57 0.60 0.64 0.68 0.68 0.62 0.67 0.76 0.88 0.96 0.98 0.99 1.03 1.17 1.26 1.25 1.20 1.05 0.88 0.81 0.84 0.94 1.03 1.08 1.06 1.04
0.12 0.13 0.15 0.17 0.19 0.21 0.23 0.26 0.30 0.35 0.40 0.44 0.46 0.47 0.48 0.48 0.49 0.53 0.62 0.71 0.79 0.79 0.74 0.79 0.86 0.94 1.03 1.01 1.01 1.06 1.09 1.06 1.05 0.99 0.89 0.84 0.86 0.95 1.03 1.02 1.09 1.10 1.14
0.16 0.17 0.18 0.20 0.24 0.28 0.30 0.33 0.36 0.39 0.45 0.58 0.63 0.65 0.68 0.63 0.55 0.67 0.82 0.91 0.92 0.91 0.96 1.04 1.02 0.99 1.04 1.01 0.99 0.99 1.00 1.05 1.06 1.00 1.01 1.02 0.99 0.97 0.97 0.96 1.02 1.07 1.09
0.20 0.19 0.20 0.22 0.25 0.28 0.32 0.37 0.43 0.45 0.49 0.59 0.66 0.72 0.72 0.68 0.72 0.87 0.94 0.96 0.97 1.00 1.18 1.12 0.91 0.82 0.80 0.79 0.84 0.88 0.89 0.92 0.91 0.96 1.03 1.02 0.99 0.96 0.97 0.99 1.00 1.02 0.99
0.26 0.27 0.27 0.28 0.29 0.31 0.33 0.35 0.40 0.45 0.47 0.50 0.55 0.59 0.64 0.68 0.77 0.87 0.99 1.09 1.12 1.11 1.18 0.92 0.78 0.76 0.77 0.78 0.82 0.84 0.83 0.82 0.88 0.97 1.00 0.98 0.98 1.00 1.00 0.99 0.98 0.98 0.95
0.29 0.32 0.34 0.35 0.35 0.36 0.38 0.39 0.41 0.44 0.49 0.51 0.52 0.56 0.62 0.68 0.78 0.89 1.03 1.27 1.31 1.08 0.85 0.71 0.73 0.77 0.81 0.83 0.83 0.82 0.83 0.85 0.91 0.95 0.97 0.96 0.97 1.01 1.00 0.94 0.90 0.90 0.91
0.34 0.36 0.37 0.39 0.41 0.43 0.44 0.47 0.49 0.51 0.51 0.52 0.55 0.61 0.65 0.71 0.80 0.90 1.03 1.13 0.92 0.77 0.67 0.69 0.77 0.86 0.89 0.89 0.88 0.85 0.85 0.83 0.83 0.89 0.93 0.92 0.94 0.99 0.97 0.87 0.86 0.89 0.93
0.39 0.41 0.44 0.48 0.50 0.51 0.52 0.54 0.56 0.58 0.59 0.58 0.58 0.60 0.70 0.82 0.87 0.84 0.87 0.84 0.82 0.78 0.73 0.76 0.85 0.92 0.93 0.91 0.89 0.86 0.86 0.85 0.83 0.85 0.85 0.85 0.88 0.92 0.92 0.86 0.85 0.87 0.85
0.46 0.47 0.49 0.54 0.57 0.58 0.60 0.63 0.64 0.66 0.65 0.64 0.63 0.66 0.82 0.86 0.73 0.70 0.76 0.82 0.85 0.82 0.79 0.80 0.84 0.88 0.87 0.86 0.84 0.82 0.81 0.79 0.76 0.76 0.77 0.78 0.80 0.83 0.81 0.83 0.85 0.86 0.87
0.52 0.53 0.55 0.59 0.62 0.66 0.69 0.69 0.72 0.72 0.70 0.68 0.68 0.75 0.86 0.82 0.74 0.74 0.76 0.80 0.82 0.83 0.83 0.82 0.84 0.84 0.83 0.82 0.80 0.79 0.76 0.72 0.70 0.71 0.72 0.73 0.74 0.75 0.75 0.78 0.80 0.81 0.82
0.52 0.55 0.58 0.61 0.64 0.69 0.71 0.71 0.71 0.71 0.70 0.69 0.71 0.75 0.77 0.72 0.68 0.68 0.70 0.73 0.77 0.80 0.81 0.81 0.80 0.78 0.75 0.74 0.73 0.73 0.71 0.67 0.66 0.69 0.73 0.72 0.69 0.68 0.70 0.71 0.72 0.73 0.74
0.52 0.53 0.54 0.57 0.60 0.63 0.65 0.67 0.68 0.69 0.69 0.70 0.70 0.67 0.65 0.66 0.68 0.69 0.71 0.72 0.72 0.71 0.70 0.69 0.67 0.65 0.61 0.60 0.60 0.60 0.61 0.63 0.67 0.69 0.68 0.67 0.64 0.62 0.63 0.66 0.68 0.69 0.71
0.51 0.52 0.52 0.54 0.56 0.57 0.59 0.61 0.63 0.64 0.65 0.64 0.63 0.63 0.64 0.65 0.66 0.66 0.66 0.65 0.62 0.60 0.58 0.56 0.55 0.54 0.52 0.50 0.49 0.49 0.51 0.55 0.56 0.58 0.60 0.61 0.59 0.56 0.56 0.59 0.62 0.66 0.69
0.48 0.48 0.49 0.51 0.52 0.54 0.54 0.55 0.56 0.57 0.58 0.58 0.59 0.60 0.60 0.60 0.58 0.57 0.56 0.55 0.53 0.51 0.49 0.48 0.47 0.46 0.45 0.45 0.44 0.44 0.46 0.51 0.53 0.52 0.52 0.54 0.52 0.49 0.49 0.52 0.55 0.58 0.62